DW8241 Weather Reports


Display with metric or nautical units.
time (UTC)temp
F
wind
direction
speed
MPH
gust
MPH
rain 1hr
in
rain 24hr
in
rain mn
in
humidity
%
barometer
mb
20260901160058 74 274 10.0 16.0 0.00 0.00 0.00 67 1012.3
20260901154557 73 326 9.0 16.0 0.00 0.00 0.00 67 1012.4
20260901153051 72 304 7.0 14.0 0.00 0.00 0.00 71 1012.6
20260901151548 71 255 9.0 14.0 0.00 0.00 0.00 73 1012.5
20260901150049 71 295 8.0 17.0 0.00 0.00 0.00 73 1012.4
20260901144543 70 288 7.0 14.0 0.00 0.00 0.00 74 1012.5
20260901143040 69 294 6.0 12.0 0.00 0.00 0.00 76 1012.4
20260901141537 68 297 6.0 10.0 0.00 0.00 0.00 77 1012.3
20260901140034 67 288 4.0 8.0 0.00 0.00 0.00 80 1012.2
20260901134529 65 290 4.0 7.0 0.00 0.00 0.00 81 1012.0
20260901133026 64 274 5.0 10.0 0.00 0.00 0.00 82 1012.0
20260901131523 63 263 3.0 6.0 0.00 0.00 0.00 85 1012.0
20260901130022 61 279 2.0 5.0 0.00 0.00 0.00 87 1012.0
20260901124521 61 285 2.0 6.0 0.00 0.00 0.00 87 1012.1
20260901123020 59 276 3.0 5.0 0.00 0.00 0.00 89 1012.1
20260901121526 59 269 3.0 6.0 0.00 0.00 0.00 89 1012.0
20260901120017 58 265 2.0 4.0 0.00 0.01 0.00 89 1011.9
20260901114521 58 261 3.0 5.0 0.00 0.01 0.00 89 1011.8
20260901113015 59 278 2.0 7.0 0.00 0.01 0.00 88 1011.7
20260901111513 59 266 4.0 9.0 0.00 0.01 0.00 88 1011.6
20260901110012 59 249 4.0 8.0 0.00 0.01 0.00 88 1011.5
20260901104514 59 264 4.0 6.0 0.00 0.01 0.00 88 1011.3
20260901103012 59 245 5.0 9.0 0.00 0.01 0.00 87 1011.2
20260901101504 60 265 4.0 6.0 0.00 0.01 0.00 86 1011.0
20260901100002 60 257 4.0 6.0 0.00 0.01 0.00 86 1011.0
20260901094505 60 271 3.0 7.0 0.00 0.01 0.00 86 1011.0
20260901093102 61 257 3.0 7.0 0.00 0.01 0.00 84 1011.1
20260901091606 62 268 4.0 8.0 0.00 0.01 0.00 84 1010.9
20260901090101 61 275 3.0 7.0 0.00 0.01 0.00 84 1010.8
20260901084556 62 233 2.0 6.0 0.00 0.01 0.00 84 1010.8
20260901083157 62 266 6.0 10.0 0.00 0.01 0.00 83 1010.7
20260901081555 62 268 3.0 6.0 0.00 0.01 0.00 84 1010.6
20260901080109 62 274 5.0 10.0 0.00 0.01 0.00 83 1010.7
20260901074553 62 261 5.0 9.0 0.00 0.01 0.00 83 1010.7
20260901073052 62 259 5.0 8.0 0.00 0.01 0.00 84 1010.5
20260901071600 61 229 3.0 7.0 0.00 0.01 0.00 87 1010.5
20260901070059 62 240 3.0 6.0 0.00 0.01 0.00 85 1010.5
20260901064605 62 263 2.0 5.0 0.00 0.01 0.00 83 1010.5
20260901063057 63 278 3.0 8.0 0.00 0.01 0.00 82 1010.3
20260901061543 63 270 4.0 8.0 0.00 0.01 0.00 83 1010.1
20260901060043 61 241 3.0 6.0 0.00 0.01 0.00 85 1010.0
20260901054539 62 257 4.0 6.0 0.00 0.37 0.00 83 1010.0
20260901053037 64 252 3.0 5.0 0.00 0.37 0.00 80 1009.9
20260901051534 63 259 2.0 5.0 0.00 0.37 0.00 80 1009.7
20260901050031 63 259 3.0 5.0 0.00 0.39 0.37 80 1009.7
20260901044530 65 259 3.0 5.0 0.00 0.39 0.37 78 1009.8
20260901043032 64 271 2.0 4.0 0.00 0.39 0.37 79 1009.8
20260901041529 65 229 2.0 5.0 0.00 0.39 0.37 77 1009.8
20260901040029 65 266 3.0 6.0 0.00 0.39 0.37 75 1009.7
20260901034528 66 259 3.0 5.0 0.00 0.39 0.37 73 1009.7
20260901033036 69 250 3.0 9.0 0.00 0.39 0.37 67 1009.7
20260901031537 69 302 3.0 6.0 0.00 0.39 0.37 64 1009.4
20260901030025 70 276 4.0 8.0 0.00 0.39 0.37 61 1009.2
20260901024525 71 286 4.0 9.0 0.00 0.39 0.37 59 1009.0
20260901023024 70 244 6.0 9.0 0.00 0.39 0.37 60 1008.4
20260901021542 71 238 4.0 9.0 0.00 0.39 0.37 58 1008.0
20260901020023 71 239 4.0 7.0 0.00 0.39 0.37 58 1007.8
20260901014522 72 236 4.0 7.0 0.00 0.39 0.37 56 1007.7
20260901013030 73 242 4.0 8.0 0.00 0.39 0.37 55 1007.5
20260901011521 73 218 4.0 7.0 0.00 0.39 0.37 54 1007.4
20260901010038 75 240 4.0 6.0 0.00 0.43 0.37 51 1007.3
20260901004520 77 243 5.0 9.0 0.00 0.43 0.37 48 1007.3
20260901003026 79 264 8.0 13.0 0.00 0.43 0.37 45 1007.1
20260901001519 80 251 6.0 14.0 0.00 0.43 0.37 44 1007.1
20260901000016 81 243 8.0 16.0 0.00 0.43 0.37 43 1007.2
20260831234517 81 271 9.0 17.0 0.00 0.43 0.37 42 1007.1
20260831233015 82 239 9.0 22.0 0.00 0.43 0.37 41 1007.1
20260831231514 82 241 14.0 23.0 0.00 0.43 0.37 39 1007.1
20260831230014 82 268 14.0 23.0 0.00 0.43 0.37 40 1007.0
20260831224512 82 254 14.0 24.0 0.00 0.43 0.37 40 1006.9
20260831223021 83 246 14.0 24.0 0.00 0.43 0.37 39 1006.7
20260831221515 83 262 19.0 29.0 0.00 0.43 0.37 38 1006.6
20260831220011 83 276 19.0 29.0 0.00 0.43 0.37 38 1006.5
20260831214509 83 266 13.0 25.0 0.00 0.43 0.37 42 1006.4
20260831213008 83 264 14.0 23.0 0.00 0.43 0.37 41 1006.4
20260831211509 83 266 17.0 25.0 0.00 0.43 0.37 43 1006.6
20260831210012 83 267 12.0 22.0 0.00 0.43 0.37 44 1006.9
20260831204505 83 302 13.0 25.0 0.00 0.43 0.37 43 1007.1
20260831203010 83 264 16.0 26.0 0.00 0.43 0.37 41 1007.2
20260831201503 82 262 14.0 23.0 0.00 0.43 0.37 42 1007.2
20260831200008 82 234 12.0 22.0 0.00 0.43 0.37 44 1007.5
20260831194503 82 239 12.0 24.0 0.00 0.43 0.37 44 1007.6
20260831193100 81 261 13.0 21.0 0.00 0.43 0.37 42 1007.7
20260831191601 81 231 11.0 21.0 0.00 0.43 0.37 44 1007.8
20260831184558 81 257 10.0 21.0 0.00 0.43 0.37 43 1008.3
20260831183053 80 243 9.0 16.0 0.00 0.43 0.37 45 1008.5
20260831181551 80 250 10.0 16.0 0.00 0.43 0.37 48 1008.6
20260831180049 79 291 10.0 17.0 0.00 0.43 0.37 50 1008.9
20260831174548 78 266 10.0 15.0 0.00 0.43 0.37 51 1009.1
20260831173043 78 250 9.0 17.0 0.00 0.43 0.37 55 1009.1
20260831171544 77 263 9.0 14.0 0.00 0.43 0.37 58 1009.3
20260831170036 76 255 10.0 17.0 0.00 0.43 0.37 61 1009.5
20260831164532 75 259 9.0 16.0 0.00 0.43 0.37 66 1009.6
20260831163037 75 279 8.0 16.0 0.00 0.43 0.37 67 1009.5
20260831161528 74 290 9.0 15.0 0.00 0.43 0.37 68 1009.5